STARLINK-5676, 55464

Orbit data source: Space-Track

STARLINK-5676, 55464 is a payload satellite owned by SpaceX/Seattle (US) in LEO that was launched on Thu, 02 Feb 2023 UTC via an FALCON 9 launch vehicle from the Air Force Eastern Test Range (AFETR). Payload-class satellites include a variety of spacecraft equipped with specific instruments for various scientific and technological missions. These include communications satellites like Starlink; space stations such as the ISS; scientific satellites like the Hubble; Earth observation satellites from companies like Planet Labs, Umbra, and HawkEye 360; GPS; miniature CubeSats for education and research; and military/defense satellites.

Loading next visibility...
Identifier
55464, 2023-015R
Orbit
LEO
Country
Flag of USUS
Related business
Manufacturer
SpaceX/Seattle
Mission
Operational Commercial Communications
Bus & Motor
STARLINK, Unknown motor
Mass
305 kg wet, ~290 kg dry
Launch date (UTC)
2023-02-02 (3 years ago)
Launch vehicle
FALCON 9
Launch site
Air Force Eastern Test Range (AFETR)
Object type
Payload
Rocket body
Debris
Shape & HBR
Box + 1 Pan, 10.1 m
Radar Cross Section
13.562 m², Large (>1 m²)

Expand to show TLE details & history
Last TLE update: 18 hours ago

TLE from 18 hours ago
0 STARLINK-5676
1 55464U 23015R   26035.30466622  .00000752  00000-0  70742-4 0  9998
2 55464  43.0022 147.2555 0002237 278.2183  81.8405 15.02550614165738
Epoch: 2026-02-04T07:18Z
TLE epoch observation values (Epoch: 2026-02-04T07:18:43.161Z)
Latitude
-0.00006°
Longitude
-96.89756°
Altitude
558.593 km
Speed
7.584 km/s
True Right ascension
09h 49m 01s
True Declination
0° 00' 00"
Sunlit
Object was in full shadow at epoch
Visualization orbit readout
Latitude
Unknown
Longitude
Unknown
Altitude
Unknown
Speed
Unknown
Apparent Right ascension
Unknown
Apparent Declination
Unknown
Sunlit
N/A
Visualization observer readout
Local Sidereal Time
03:08:29
Azimuth
Unknown
Elevation
Unknown
Doppler factor
Unknown
Orbital elements
Apogee altitude
562.51 km
Perigee altitude
559.406 km
Semi-major axis
6,939.095 km
Eccentricity
0.00022
Inclination
43.0022°
RAAN
147.2555°
Arg. of periapsis
278.2183°
True anomaly
81.86588°
Mean anomaly
81.8405°
Eccentric anomaly
81.85319°
Mean motion
3.75482 °/min
Orbital period
95.88 mins
BSTAR
0.000070742
Loading maneuver chart data...
Computing Atmospheric mass density...
Loading historical data...
Loading historical data...
Loading historical data...
Loading historical data...
Loading historical data...
Loading historical data...
Loading historical data...

Documentation

Showing up to 5 results
|